This is the latest recevied weather packets stored in our database for station/object WC4PEM-8. If no packets are shown the sender has not sent any weather packets the latest 1 day(s).
| Time | Temp. | Humidity | Pressure | Rain* | Wind** | Luminosity | Snow |
|---|---|---|---|---|---|---|---|
| 1778090154 | 31.67° C | 48% | 1016 hPa | 0 mm | - | - | - |
| 1778089854 | 31.67° C | 48% | 1016.1 hPa | 0 mm | - | - | - |
| 1778089554 | 31.67° C | 49% | 1016.1 hPa | 0 mm | - | - | - |
| 1778089254 | 31.67° C | 49% | 1016.3 hPa | 0 mm | - | - | - |
| 1778088954 | 31.67° C | 51% | 1016.4 hPa | 0 mm | - | - | - |
| 1778088654 | 31.11° C | 52% | 1016.3 hPa | 0 mm | - | - | - |
| 1778088354 | 31.11° C | 51% | 1016.4 hPa | 0 mm | - | - | - |
| 1778088054 | 31.11° C | 51% | 1016.4 hPa | 0 mm | - | - | - |
| 1778087754 | 31.11° C | 50% | 1016.6 hPa | 0 mm | - | - | - |
| 1778087454 | 31.11° C | 51% | 1016.6 hPa | 0 mm | - | - | - |
| 1778087154 | 31.11° C | 52% | 1016.9 hPa | 0 mm | - | - | - |
| 1778086555 | 31.11° C | 52% | 1016.8 hPa | 0 mm | - | - | - |
| 1778086254 | 30.56° C | 54% | 1016.8 hPa | 0 mm | - | - | - |
| 1778085954 | 30.56° C | 54% | 1017 hPa | 0 mm | - | - | - |
| 1778085721 | 30.56° C | 54% | 1016.9 hPa | 0 mm | - | - | - |
| 1778085654 | 30.56° C | 54% | 1016.9 hPa | 0 mm | - | - | - |
| 1778085354 | 30° C | 53% | 1017 hPa | 0 mm | - | - | - |
| 1778085054 | 30.56° C | 54% | 1017.1 hPa | 0 mm | - | - | - |
| 1778084754 | 30° C | 55% | 1017 hPa | 0 mm | - | - | - |
| 1778084554 | 30° C | 56% | 1017 hPa | 0 mm | - | - | - |
| 1778084154 | 29.44° C | 56% | 1017.1 hPa | 0 mm | - | - | - |
| 1778083874 | 29.44° C | 59% | 1017 hPa | 0 mm | - | - | - |
| 1778083854 | 29.44° C | 56% | 1017.1 hPa | 0 mm | - | - | - |
| 1778083554 | 29.44° C | 57% | 1017.2 hPa | 0 mm | - | - | - |
| 1778083332 | 29.44° C | 59% | 1017 hPa | 0 mm | - | - | - |
* Rain latest hour (hover to see other rain measurements)
** Current wind speed in m/s (hover to see current wind gust speed)